TAR187 DTNH-DTTA

Flight info

Callsign TAR187
Flight time N/A
Altitude 13000
Route VAXAL1C VAXAL DCT RAMAM DCT ADRIL DCT JAMOR/N0360F120 DCT MARSA
Aircraft A320/M-SDE3FGHIRWY/LB1

Departure

Time 2026-04-24 16:34
Airport Enfidha - Hammamet International Airport (DTNH)

Arrival

Time N/A
Airport Tunis Carthage International Airport (DTTA)
Time Latitude Longitude Altitude Speed Heading
2026-04-24 16:21 36.08330 10.44095 25 ft 0 kts 284°
2026-04-24 16:25 36.08367 10.44220 26 ft 0 kts 180°
2026-04-24 16:27 36.08366 10.44220 24 ft 1 kts 180°
2026-04-24 16:27 36.08299 10.44220 24 ft 18 kts 180°
2026-04-24 16:27 36.08197 10.44146 24 ft 17 kts 226°
2026-04-24 16:27 36.08119 10.44051 25 ft 15 kts 225°
2026-04-24 16:28 36.08050 10.43962 25 ft 14 kts 227°
2026-04-24 16:28 36.07969 10.43933 25 ft 12 kts 179°
2026-04-24 16:28 36.07746 10.43861 26 ft 19 kts 253°
2026-04-24 16:29 36.07744 10.43639 25 ft 32 kts 270°
2026-04-24 16:29 36.07748 10.43349 26 ft 36 kts 271°
2026-04-24 16:29 36.07753 10.42713 27 ft 38 kts 271°
2026-04-24 16:30 36.07752 10.42079 28 ft 22 kts 252°
2026-04-24 16:30 36.07684 10.42043 28 ft 0 kts 179°
2026-04-24 16:34 36.07638 10.42048 28 ft 19 kts 165°
2026-04-24 16:34 36.07580 10.42337 27 ft 70 kts 89°
2026-04-24 16:34 36.07585 10.43285 129 ft 134 kts 89°
2026-04-24 16:34 36.07604 10.44427 903 ft 136 kts 81°
2026-04-24 16:35 36.07939 10.45632 1457 ft 163 kts 58°
2026-04-24 16:35 36.08831 10.46692 2014 ft 188 kts 28°
2026-04-24 16:35 36.10097 10.47080 3050 ft 191 kts 360°
2026-04-24 16:35 36.11400 10.46682 4078 ft 197 kts 339°
2026-04-24 16:36 36.12699 10.46068 5095 ft 204 kts 339°
2026-04-24 16:36 36.14125 10.45668 6123 ft 218 kts 355°
2026-04-24 16:36 36.15687 10.45878 7135 ft 236 kts 11°
2026-04-24 16:36 36.17311 10.46403 8131 ft 237 kts 11°
2026-04-24 16:37 36.18893 10.46916 9158 ft 233 kts 11°
2026-04-24 16:37 36.20511 10.47438 9776 ft 242 kts 10°
2026-04-24 16:37 36.21595 10.47787 9922 ft 243 kts 10°
2026-04-24 16:37 36.23784 10.48495 10001 ft 243 kts 10°
2026-04-24 16:38 36.25416 10.49021 10007 ft 242 kts 10°
2026-04-24 16:38 36.27045 10.49547 10010 ft 242 kts 10°
2026-04-24 16:38 36.28672 10.50071 10014 ft 242 kts 10°
2026-04-24 16:38 36.30308 10.50588 10013 ft 242 kts
2026-04-24 16:39 36.31943 10.51093 10014 ft 242 kts
2026-04-24 16:39 36.33575 10.51592 10015 ft 241 kts
2026-04-24 16:39 36.35202 10.52090 10007 ft 242 kts
2026-04-24 16:39 36.36834 10.52593 10014 ft 242 kts